Waarnemingen

Advertentie
Mijn weer
Kvarn, Zweden (2561): temperatuur & dauwpunt: 18.08.2019 01:00:00 - 24.08.2019 01:00:00 (CEST)Kvarn, Zweden (2561): windsnelheid & windstoten: 18.08.2019 01:00:00 - 24.08.2019 01:00:00 (CEST)Kvarn, Zweden (2561): windrichting: 18.08.2019 01:00:00 - 24.08.2019 01:00:00 (CEST)Kvarn, Zweden (2561): luchtdruk: 18.08.2019 01:00:00 - 24.08.2019 01:00:00 (CEST)Kvarn, Zweden (2561): zicht: 18.08.2019 01:00:00 - 24.08.2019 01:00:00 (CEST)Kvarn, Zweden (2561): neerslag: 18.08.2019 01:00:00 - 24.08.2019 01:00:00 (CEST)
Datum & Tijd tt [°C] td [°C] ff [km/u] ff [kn] fx [km/u] fx [kn] dd ppp [hPa] vv [km] rr [mm]
24.08.2019 01:00:00 - - - - - - - - - -
24.08.2019 00:00:00 14,3 14,1 4 2 11 6 ZZW 1022,3 21 0,0
23.08.2019 23:00:00 15,0 14,2 4 2 18 10 ZZW 1022,0 26 0,0
23.08.2019 22:00:00 16,0 14,5 7 4 18 10 W 1021,5 35 0,0
23.08.2019 21:00:00 16,5 14,5 7 4 22 12 ZW 1021,1 35 0,0
23.08.2019 20:00:00 17,4 14,7 7 4 18 10 W 1020,3 40 0,0
23.08.2019 19:00:00 18,6 15,3 7 4 29 16 W 1019,9 40 0,0
23.08.2019 18:00:00 19,0 17,0 11 6 29 16 WZW 1019,7 45 0,0
23.08.2019 17:00:00 19,3 17,6 11 6 32 18 WZW 1019,3 45 0,0
23.08.2019 16:00:00 18,3 17,1 11 6 29 16 ZW 1019,0 40 0,0
23.08.2019 15:00:00 18,4 17,4 11 6 29 16 WZW 1018,7 45 0,0
23.08.2019 14:00:00 17,8 17,5 11 6 25 14 ZW 1018,8 45 0,0
23.08.2019 13:00:00 16,8 16,8 11 6 25 14 ZW 1018,9 4,9 0,1
23.08.2019 12:00:00 16,6 16,6 7 4 22 12 ZW 1019,3 11 0,0
23.08.2019 11:00:00 15,2 15,2 4 2 14 8 ZZW 1019,4 11 0,5
23.08.2019 10:00:00 14,1 14,1 7 4 11 6 Z 1019,6 5 2,0
23.08.2019 09:00:00 13,9 13,7 4 2 14 8 Z 1019,8 11 0,3
23.08.2019 08:00:00 13,8 13,2 4 2 14 8 ZZO 1019,9 24 0,0
23.08.2019 07:00:00 12,1 12,1 4 2 7 4 ZZO 1020,5 24 0,0
23.08.2019 06:00:00 10,9 10,9 4 2 11 6 ZZW 1021,0 10 0,0
23.08.2019 05:00:00 11,2 11,2 4 2 11 6 Z 1021,1 14 0,0
23.08.2019 04:00:00 12,0 12,0 4 2 7 4 Z 1021,2 20 0,0
23.08.2019 03:00:00 11,9 11,9 4 2 11 6 Z 1021,7 10 0,0
23.08.2019 02:00:00 12,7 12,7 4 2 11 6 ZZW 1021,7 17 0,0
23.08.2019 01:00:00 12,5 12,5 4 2 11 6 Z 1021,8 10 0,0
23.08.2019 00:00:00 14,2 13,9 4 2 25 14 ZZW 1021,8 35 0,0
22.08.2019 23:00:00 14,1 14,1 7 4 22 12 ZZW 1021,8 19 0,2
22.08.2019 22:00:00 14,1 13,8 0 0 25 14 N 1021,8 - 0,9
22.08.2019 21:00:00 15,3 13,1 4 2 11 6 ZZO 1021,7 50 0,0
22.08.2019 20:00:00 14,9 14,3 0 0 4 2 N 1022,0 45 0,0
22.08.2019 19:00:00 16,4 14,8 0 0 7 4 N 1022,5 30 0,0
22.08.2019 18:00:00 17,7 12,2 4 2 18 10 ZZW 1022,8 50 0,0
22.08.2019 17:00:00 18,6 11,7 7 4 25 14 ZZW 1023,1 45 0,0
22.08.2019 16:00:00 19,4 11,7 11 6 29 16 ZW 1023,5 45 0,0
22.08.2019 15:00:00 19,7 11,2 11 6 25 14 ZW 1023,7 40 0,0
22.08.2019 14:00:00 19,5 11,3 11 6 29 16 ZW 1024,0 40 0,0
22.08.2019 13:00:00 19,0 11,8 7 4 22 12 ZW 1024,4 45 0,0
22.08.2019 12:00:00 18,5 12,5 7 4 18 10 WZW 1024,7 40 0,0
22.08.2019 11:00:00 17,5 13,2 7 4 22 12 W 1025,2 40 0,0
22.08.2019 10:00:00 16,1 13,6 4 2 14 8 ZZW 1025,3 40 0,0
22.08.2019 09:00:00 15,6 13,8 7 4 18 10 ZZW 1025,2 35 0,0
22.08.2019 08:00:00 12,8 12,8 7 4 14 8 ZW 1025,3 30 0,0
22.08.2019 07:00:00 7,8 7,8 0 0 4 2 N 1025,2 14 0,0
22.08.2019 06:00:00 7,0 7,0 0 0 4 2 N 1025,2 10 0,0
22.08.2019 05:00:00 7,6 7,6 0 0 4 2 N 1025,0 16 0,0
22.08.2019 04:00:00 8,4 8,4 0 0 11 6 N 1024,8 17 0,0
22.08.2019 03:00:00 9,2 9,1 4 2 11 6 Z 1024,7 25 0,0
22.08.2019 02:00:00 11,1 10,0 4 2 7 4 ZW 1024,5 45 0,0
22.08.2019 01:00:00 11,4 9,5 4 2 11 6 ZW 1024,4 45 0,0
22.08.2019 00:00:00 11,7 9,4 4 2 7 4 ZW 1024,1 50 0,0
21.08.2019 23:00:00 12,7 9,3 4 2 11 6 ZW 1023,7 45 0,0
21.08.2019 22:00:00 13,1 9,7 4 2 11 6 ZW 1023,1 50 0,0
21.08.2019 21:00:00 12,8 9,6 4 2 11 6 ZW 1022,6 30 0,0
21.08.2019 20:00:00 15,3 9,9 4 2 18 10 ZW 1022,1 50 0,0
21.08.2019 19:00:00 17,5 9,4 7 4 18 10 WZW 1021,6 45 0,0
21.08.2019 18:00:00 18,6 9,9 7 4 25 14 ZW 1021,4 40 0,0
21.08.2019 17:00:00 18,9 9,9 11 6 25 14 ZW 1021,3 40 0,0
21.08.2019 16:00:00 19,0 11,1 11 6 25 14 WZW 1021,2 40 0,0
21.08.2019 15:00:00 18,7 11,3 11 6 22 12 ZW 1021,1 45 0,0
21.08.2019 14:00:00 17,6 11,4 11 6 22 12 WZW 1021,3 35 0,0
21.08.2019 13:00:00 18,3 11,8 11 6 22 12 ZW 1021,1 40 0,0
21.08.2019 12:00:00 17,8 12,7 7 4 25 14 ZW 1021,2 40 0,0
21.08.2019 11:00:00 16,5 13,0 7 4 22 12 WZW 1021,3 45 0,0
21.08.2019 10:00:00 17,0 13,7 7 4 22 12 ZW 1021,3 35 0,0
21.08.2019 09:00:00 14,6 13,8 7 4 18 10 ZZW 1021,4 35 0,0
21.08.2019 08:00:00 12,5 12,5 4 2 14 8 ZZW 1021,4 30 0,0
21.08.2019 07:00:00 9,8 9,8 0 0 7 4 N 1021,2 11 0,0
21.08.2019 06:00:00 8,7 8,7 0 0 7 4 N 1020,8 8 0,0
21.08.2019 05:00:00 8,5 8,5 0 0 4 2 N 1020,7 9 0,0
21.08.2019 04:00:00 8,8 8,8 0 0 4 2 N 1020,3 11 0,0
21.08.2019 03:00:00 8,8 8,8 0 0 4 2 N 1020,2 9 0,0
21.08.2019 02:00:00 9,3 9,3 0 0 4 2 N 1020,0 11 0,0
21.08.2019 01:00:00 9,9 9,9 0 0 4 2 N 1019,9 20 0,0
21.08.2019 00:00:00 10,6 10,6 0 0 7 4 N 1019,5 22 0,0
20.08.2019 23:00:00 11,9 11,6 4 2 7 4 Z 1019,2 45 0,0
20.08.2019 22:00:00 13,2 12,1 4 2 11 6 Z 1018,8 45 0,0
20.08.2019 21:00:00 14,9 11,9 4 2 14 8 ZZW 1018,6 50 0,0
20.08.2019 20:00:00 17,1 10,9 7 4 18 10 ZW 1017,9 50 0,0
20.08.2019 19:00:00 18,8 11,6 11 6 18 10 ZW 1017,5 40 0,0
20.08.2019 18:00:00 19,4 11,7 7 4 22 12 ZW 1017,3 35 0,0
20.08.2019 17:00:00 20,2 11,7 7 4 22 12 ZW 1016,7 35 0,0
20.08.2019 16:00:00 20,7 11,6 11 6 25 14 ZW 1016,5 23 0,0
20.08.2019 15:00:00 19,4 11,9 11 6 22 12 ZZW 1016,7 28 0,0
20.08.2019 14:00:00 20,0 12,0 11 6 25 14 ZZW 1016,6 27 0,0
20.08.2019 13:00:00 19,2 12,5 14 8 25 14 ZW 1016,6 22 0,0
20.08.2019 12:00:00 19,0 12,7 11 6 29 16 W 1016,4 30 0,0
20.08.2019 11:00:00 17,0 13,1 7 4 22 12 WZW 1016,2 30 0,0
20.08.2019 10:00:00 17,0 13,5 11 6 25 14 ZW 1015,9 35 0,0
20.08.2019 09:00:00 16,0 14,4 7 4 18 10 ZW 1015,4 29 0,0
20.08.2019 08:00:00 14,4 14,4 7 4 14 8 Z 1015,0 24 0,0
20.08.2019 07:00:00 11,6 11,6 4 2 14 8 ZZW 1014,7 14 0,0
20.08.2019 06:00:00 9,6 9,6 0 0 7 4 N 1014,4 7 0,0
20.08.2019 05:00:00 9,3 9,3 0 0 4 2 N 1014,1 5 0,0
20.08.2019 04:00:00 10,1 10,1 0 0 11 6 N 1013,8 8 0,0
20.08.2019 03:00:00 11,5 11,5 4 2 11 6 Z 1013,4 23 0,0
20.08.2019 02:00:00 11,3 11,3 4 2 11 6 Z 1013,0 19 0,0
20.08.2019 01:00:00 11,0 11,0 4 2 7 4 Z 1012,7 20 0,0
20.08.2019 00:00:00 12,7 12,2 4 2 14 8 Z 1012,3 - 0,0
19.08.2019 23:00:00 12,9 12,3 7 4 14 8 ZZW 1012,0 45 0,0
19.08.2019 22:00:00 11,5 11,5 4 2 11 6 ZZW 1011,6 24 0,0
19.08.2019 21:00:00 12,8 12,3 0 0 11 6 N 1011,1 35 0,0
19.08.2019 20:00:00 16,8 12,7 4 2 14 8 ZW 1010,4 45 0,0
19.08.2019 19:00:00 16,4 14,2 0 0 18 10 N 1009,9 45 0,0
19.08.2019 18:00:00 19,1 15,2 7 4 18 10 Z 1009,4 40 0,0
19.08.2019 17:00:00 18,6 13,7 7 4 18 10 ZZW 1009,3 45 0,0
19.08.2019 16:00:00 17,8 12,9 7 4 29 16 WZW 1009,3 40 0,0
19.08.2019 15:00:00 19,6 10,6 14 8 29 16 ZW 1008,5 40 0,0
19.08.2019 14:00:00 20,1 11,6 14 8 29 16 ZW 1007,9 40 0,0
19.08.2019 13:00:00 18,8 12,5 11 6 29 16 ZW 1008,0 35 0,0
19.08.2019 12:00:00 18,1 13,0 14 8 29 16 ZW 1007,6 30 0,0
19.08.2019 11:00:00 17,4 13,9 11 6 25 14 ZW 1007,4 35 0,0
19.08.2019 10:00:00 16,0 14,4 11 6 25 14 WZW 1006,8 30 0,0
19.08.2019 09:00:00 15,1 14,6 7 4 18 10 ZW 1006,5 28 0,0
19.08.2019 08:00:00 14,2 14,0 7 4 14 8 ZW 1005,5 35 0,0
19.08.2019 07:00:00 13,4 13,4 4 2 14 8 ZW 1005,1 40 0,0
19.08.2019 06:00:00 13,5 13,5 7 4 14 8 ZW 1004,4 35 0,0
19.08.2019 05:00:00 13,4 13,4 4 2 11 6 WZW 1003,5 40 0,2
19.08.2019 04:00:00 13,4 13,4 4 2 11 6 ZZW 1002,7 14 0,1
19.08.2019 03:00:00 12,9 12,9 0 0 7 4 N 1002,6 7 0,0
19.08.2019 02:00:00 12,7 12,7 4 2 7 4 Z 1002,6 18 0,0
19.08.2019 01:00:00 12,7 12,7 0 0 7 4 N 1002,4 14 0,1
19.08.2019 00:00:00 12,9 12,9 0 0 7 4 N 1002,4 12 0,3
18.08.2019 23:00:00 13,5 13,5 4 2 11 6 ZZO 1002,3 19 0,5
18.08.2019 22:00:00 14,0 14,0 0 0 7 4 N 1002,6 8 1,0
18.08.2019 21:00:00 14,9 14,9 4 2 11 6 ZO 1002,8 13 1,0
18.08.2019 20:00:00 15,5 15,5 0 0 4 2 N 1003,4 5 1,0
18.08.2019 19:00:00 15,8 15,8 0 0 7 4 N 1003,5 9 0,5
18.08.2019 18:00:00 16,6 16,6 0 0 7 4 N 1004,1 30 0,0
18.08.2019 17:00:00 17,4 17,2 0 0 7 4 N 1003,8 35 0,0
18.08.2019 16:00:00 16,4 16,4 4 2 7 4 Z 1004,3 35 0,0
18.08.2019 15:00:00 16,3 16,3 4 2 7 4 WZW 1004,5 40 0,0
18.08.2019 14:00:00 15,3 15,3 4 2 7 4 W 1004,4 8 1,0
18.08.2019 13:00:00 14,7 14,7 0 0 7 4 N 1004,8 4,8 4,0
18.08.2019 12:00:00 14,6 14,6 0 0 11 6 N 1005,2 13 8,0
18.08.2019 11:00:00 16,4 16,4 0 0 7 4 N 1005,0 9 2,0
18.08.2019 10:00:00 17,0 16,5 4 2 14 8 ZZW 1004,9 16 0,2
18.08.2019 09:00:00 17,6 17,0 4 2 14 8 ZZW 1005,0 30 0,0
18.08.2019 08:00:00 15,7 15,7 4 2 14 8 Z 1005,3 16 0,0
18.08.2019 07:00:00 14,8 14,8 0 0 7 4 N 1004,6 10 0,0
18.08.2019 06:00:00 14,9 14,9 0 0 7 4 N 1005,3 9 0,0
18.08.2019 05:00:00 14,9 14,9 0 0 11 6 N 1005,0 11 0,0
18.08.2019 04:00:00 14,8 14,8 4 2 11 6 ZO 1005,2 11 0,0
18.08.2019 03:00:00 14,8 14,8 4 2 11 6 ZO 1005,2 12 0,0
18.08.2019 02:00:00 14,7 14,7 0 0 14 8 N 1005,4 10 0,0
18.08.2019 01:00:00 15,1 15,1 4 2 11 6 ZZO 1005,6 11 0,1

tt = temperatuur
td = dauwpunt
ff = windsnelheid
fx = windstoten
dd = windrichting
ppp = luchtdruk
vv = zicht
rr = neerslag

Weerstations in de omgeving